This is the latest recevied weather packets stored in our database for station/object N3WMC. If no packets are shown the sender has not sent any weather packets the latest 1 day(s).
| Time | Temp. | Humidity | Pressure | Rain* | Wind** | Luminosity | Snow |
|---|---|---|---|---|---|---|---|
| 1778058605 | 13.89° C | 95% | 1007.4 hPa | 4.83 mm | - | 0 W/m² | - |
| 1778057696 | 13.89° C | 95% | 1007.5 hPa | 4.32 mm | - | 0 W/m² | - |
| 1778057392 | 13.89° C | 94% | 1007.5 hPa | 3.05 mm | - | 0 W/m² | - |
| 1778057089 | 13.89° C | 94% | 1007.5 hPa | 3.05 mm | - | 0 W/m² | - |
| 1778056785 | 13.89° C | 94% | 1007.4 hPa | 3.05 mm | - | 0 W/m² | - |
| 1778056483 | 13.89° C | 94% | 1007.4 hPa | 1.78 mm | - | 0 W/m² | - |
| 1778056180 | 13.89° C | 93% | 1007.4 hPa | 3.05 mm | - | 0 W/m² | - |
| 1778055876 | 13.89° C | 93% | 1007.3 hPa | 1.27 mm | - | 0 W/m² | - |
| 1778055572 | 13.89° C | 93% | 1007.2 hPa | 0 mm | - | 0 W/m² | - |
| 1778055271 | 13.89° C | 93% | 1007.2 hPa | 0 mm | - | 0 W/m² | - |
| 1778054060 | 13.89° C | 94% | 1007.4 hPa | 0 mm | - | 0 W/m² | - |
| 1778053454 | 13.89° C | 94% | 1007.4 hPa | 0 mm | - | 0 W/m² | - |
| 1778053151 | 13.89° C | 94% | 1007.1 hPa | 0 mm | - | 0 W/m² | - |
| 1778052848 | 13.89° C | 94% | 1007.5 hPa | 0 mm | - | 0 W/m² | - |
| 1778051639 | 13.89° C | 95% | 1007.6 hPa | 0 mm | - | 0 W/m² | - |
| 1778051335 | 13.89° C | 95% | 1007.7 hPa | 1.78 mm | - | 0 W/m² | - |
| 1778051032 | 14.44° C | 94% | 1008 hPa | 3.05 mm | - | 0 W/m² | - |
| 1778050729 | 14.44° C | 95% | 1008.2 hPa | 1.27 mm | - | 0 W/m² | - |
| 1778050427 | 14.44° C | 95% | 1008.2 hPa | 1.27 mm | - | 0 W/m² | - |
| 1778050123 | 14.44° C | 95% | 1008 hPa | 1.78 mm | - | 0 W/m² | - |
| 1778049818 | 14.44° C | 95% | 1008.2 hPa | 1.78 mm | - | 0 W/m² | - |
| 1778049516 | 14.44° C | 95% | 1008 hPa | 1.27 mm | - | 0 W/m² | - |
| 1778049214 | 14.44° C | 95% | 1008.6 hPa | 1.78 mm | - | 0 W/m² | - |
| 1778048912 | 14.44° C | 95% | 1008.6 hPa | 1.78 mm | - | 0 W/m² | - |
| 1778047398 | 15° C | 94% | 1008.5 hPa | 0 mm | - | 0 W/m² | - |
* Rain latest hour (hover to see other rain measurements)
** Current wind speed in m/s (hover to see current wind gust speed)